Location: Newark
(54.6833°N, 25.2833°E)
Time: 01:02:01
(UTC+00:00)

A-11 Canister half - Pass Details

Date: 21 January 2021
Orbit: 1525 x 1684 km, 47.3° (Epoch: 05 March)

Event Time Altitude Azimuth Distance (km) Brightness Sun altitude
Rises 15:35:11 0° 247° (WSW) 4,699 14.1 -8.4°
Reaches altitude 10° 15:38:17 10° 243° (WSW) 3,732 12.7 -8.8°
Maximum altitude 15:47:22 54° 170° (S) 1,866 9.5 -10.0°
Drops below altitude 10° 15:56:45 10° 97° (E) 3,854 10.5 -11.3°
Enters shadow 15:56:59 - 96° (E) 3,925 10.6 -11.4°
